Altus AFB, OK

3:28 AM CDT on August 22, 2017 (GMT -0500)
Altus Air Force Base

Weather History for KLTS - March, 2014

Change the Weather History Date:

Tuesday, March 11, 2014

  Actual Average Record
Temperature  
Mean Temperature 65 °F -  
Max Temperature 86 °F 60 °F 86 °F (2014)
Min Temperature 44 °F 36 °F 21 °F (2013)
Growing Degree Days 15 (Base 50)    
Moisture  
Dew Point 37 °F    
Average Humidity 54    
Maximum Humidity 100    
Minimum Humidity 11    
Precipitation  
Precipitation 0.00 in - - ()
Sea Level Pressure  
Sea Level Pressure 29.75 in    
Wind  
Wind Speed 18 mph (NNW)    
Max Wind Speed 39 mph    
Max Gust Speed 52 mph    
Visibility 10 miles    
Events      
Averages and records for this station are not official NWS values.
T = Trace of Precipitation, MM = Missing Value Source: NWS Daily Summary

Daily Weather History Graph

Daily Weather History Graph

Search for Another Location

Airport or City:

Trip Planner

Search our weather history database for the weather conditions in past years. The results will help you decide how hot, cold, wet, or windy it might be!

Date:

Astronomy

Mar. 11, 2014 Rise Set
Actual Time 7:53 AM CDT 7:41 PM CDT
Civil Twilight 7:27 AM CDT 8:06 PM CDT
Nautical Twilight 6:58 AM CDT 8:35 PM CDT
Astronomical Twilight 6:29 AM CDT 9:05 PM CDT
Moon 3:27 PM CDT (3/11) 4:38 AM CDT (3/11)
Length of Visible Light 12h 38m
Length of Day
11h 48m
Waxing Gibbous, 78% of the Moon is Illuminated
Mar 11
Waxing Gibbous
Mar 16
Full
Mar 23
Last Quarter
Mar 30
New
Apr 7
First Quarter

Hourly Weather History & Observations

Time (CDT) Temp. Windchill Dew Point Humidity Pressure Visibility Wind Dir Wind Speed Gust Speed Precip Events Conditions
12:58 AM 48.4 °F - 41.9 °F 78% 29.71 in 10.0 mi South 4.6 mph - N/A   Clear
1:58 AM 47.5 °F - 43.9 °F 87% 29.70 in 10.0 mi South 6.9 mph - N/A   Clear
2:58 AM 47.3 °F - 45.7 °F 94% 29.68 in 10.0 mi South 6.9 mph - N/A   Clear
3:58 AM 48.9 °F - 48.4 °F 98% 29.63 in 10.0 mi South 10.4 mph - N/A   Clear
4:58 AM 48.0 °F - 47.5 °F 98% 29.61 in 10.0 mi South 8.1 mph - N/A   Clear
5:58 AM 44.2 °F 38.8 °F 44.2 °F 100% 29.59 in 10.0 mi SSE 10.4 mph - N/A   Clear
6:58 AM 45.3 °F 41.1 °F 45.3 °F 100% 29.57 in 10.0 mi SSE 8.1 mph - N/A   Clear
7:58 AM 47.1 °F - 47.1 °F 100% 29.58 in 10.0 mi SSW 9.2 mph - N/A   Clear
8:58 AM 52.3 °F - 51.6 °F 97% 29.57 in 10.0 mi South 16.1 mph - N/A   Clear
9:58 AM 57.0 °F - 50.4 °F 78% 29.55 in 10.0 mi SSW 15.0 mph - N/A   Clear
10:58 AM 65.7 °F - 44.2 °F 46% 29.52 in 10.0 mi SW 11.5 mph - N/A   Clear
11:58 AM 72.0 °F - 34.2 °F 25% 29.52 in 10.0 mi WSW 17.3 mph 25.3 mph N/A   Clear
12:58 PM 75.6 °F - 29.5 °F 18% 29.50 in 10.0 mi WSW 12.7 mph 25.3 mph N/A   Clear
1:58 PM 79.7 °F - 25.2 °F 13% 29.49 in 10.0 mi WNW 17.3 mph 24.2 mph N/A   Clear
2:58 PM 84.6 °F - 25.2 °F 11% 29.47 in 10.0 mi WNW 18.4 mph - N/A   Clear
3:58 PM 86.2 °F - 28.4 °F 12% 29.47 in 10.0 mi NW 24.2 mph 31.1 mph N/A   Clear
4:58 PM 81.5 °F - 33.3 °F 18% 29.54 in 10.0 mi NNW 25.3 mph 35.7 mph N/A   Clear
5:58 PM 73.9 °F - 38.5 °F 28% 29.61 in 10.0 mi North 29.9 mph 38.0 mph N/A   Clear
6:53 PM 68.0 °F - 37.4 °F 33% 29.69 in 10.0 mi North 28.8 mph 39.1 mph N/A   Squalls
6:58 PM 68.2 °F - 37.4 °F 32% 29.69 in 10.0 mi North 26.5 mph 39.1 mph N/A   Clear
7:36 PM 60.8 °F - 35.6 °F 39% 29.76 in 10.0 mi North 31.1 mph 43.7 mph N/A   Squalls
7:46 PM 59.0 °F - 35.6 °F 42% 29.77 in 10.0 mi North 33.4 mph 43.7 mph N/A   Squalls
7:49 PM 59.0 °F - 35.6 °F 42% 29.78 in 10.0 mi North 34.5 mph 44.9 mph N/A   Squalls
7:58 PM 57.6 °F - 35.1 °F 43% 29.79 in 10.0 mi NNW 29.9 mph 44.9 mph N/A   Clear
8:07 PM 55.4 °F - 33.8 °F 44% 29.81 in 10.0 mi North 27.6 mph 40.3 mph N/A   Squalls
8:20 PM 53.6 °F - 33.8 °F 47% 29.83 in 10.0 mi North 29.9 mph 38.0 mph N/A   Squalls
8:38 PM 51.8 °F - 33.8 °F 50% 29.86 in 10.0 mi North 31.1 mph 35.7 mph N/A   Squalls
8:41 PM 51.8 °F - 33.8 °F 50% 29.86 in 10.0 mi North 28.8 mph 38.0 mph N/A   Squalls
8:58 PM 50.9 °F - 34.2 °F 53% 29.87 in 10.0 mi North 31.1 mph 40.3 mph N/A   Clear
9:28 PM 50.0 °F - 32.0 °F 50% 29.89 in 10.0 mi North 36.8 mph 49.5 mph N/A   Squalls
9:39 PM 50.0 °F - 33.8 °F 54% 29.91 in 10.0 mi North 35.7 mph 46.0 mph N/A   Squalls
9:58 PM 49.3 °F - 33.4 °F 54% 29.93 in 10.0 mi North 32.2 mph 50.6 mph N/A   Clear
10:09 PM 50.0 °F - 33.8 °F 54% 29.94 in 10.0 mi North 36.8 mph 47.2 mph N/A   Squalls
10:12 PM 50.0 °F - 33.8 °F 54% 29.95 in 10.0 mi North 34.5 mph 47.2 mph N/A   Squalls
10:47 PM 50.0 °F - 33.8 °F 54% 29.97 in 10.0 mi North 32.2 mph 47.2 mph N/A   Mostly Cloudy
10:58 PM 49.1 °F - 33.6 °F 55% 29.97 in 10.0 mi North 27.6 mph 46.0 mph N/A   Mostly Cloudy
11:08 PM 50.0 °F - 32.0 °F 50% 29.98 in 10.0 mi North 35.7 mph 51.8 mph N/A   Squalls
11:14 PM 48.2 °F - 32.0 °F 54% 30.00 in 9.0 mi North 31.1 mph 51.8 mph N/A   Squalls
11:19 PM 48.2 °F - 32.0 °F 54% 29.99 in 9.0 mi North 35.7 mph 50.6 mph N/A   Squalls
11:21 PM 48.2 °F - 32.0 °F 54% 30.00 in 9.0 mi North 38.0 mph 50.6 mph N/A   Squalls
11:58 PM 47.1 °F - 32.4 °F 57% 30.01 in 10.0 mi North 39.1 mph 50.6 mph N/A   Mostly Cloudy